Find Starlink 32923

NORAD ID: 63097 Int'l Des: 2025-037 Owner: SPXS Country: US Constellation: starlink operational
LEOCIRCULAR

实时位置

正在加载3D地球...

关于 Starlink 32923

正在加载描述...

即将过境

Passes for default location (London). Set your location on the main map for personalized predictions.

高度历史

Loading altitude history...

两行轨道根数

1 63097U 25037W 26122.41886811 .00001431 00000-0 12771-3 0 9992
2 63097 70.0035 218.8442 0003342 275.6384 84.4394 14.98332005 66658
Epoch: May 2, 2026 • Age: 8 hours

当前状态

高度 579.9 km
速度 7.57 km/s
星下点 45.13°N, 104.41°E
发射日期 Feb 23, 2025
运行时间 1.1 years
类型 internet

技术详情

分类 Payload
质量 730.00 kg
干质量 700.00 kg
总质量 730.00 kg
长度 0.30 m
直径 4.10 m
跨度 29.00 m
形状 Box + pan
制造商 SPXS
平台类型 Starlink V2M
阶段状态 In Orbit
所有者/国家 SPXS/US

Most Searched